Weather History for MYNN - August, 2013

Change the Weather History Date:

Thursday, August 29, 2013

  Actual Average Record
Temperature  
Mean Temperature 83 °F -  
Max Temperature 89 °F 88 °F - ()
Min Temperature 77 °F 74 °F - ()
Cooling Degree Days 18    
Growing Degree Days 33 (Base 50)    
Moisture  
Dew Point 78 °F    
Average Humidity 84    
Maximum Humidity 94    
Minimum Humidity 70    
Precipitation  
Precipitation 0.04 in 0.23 in - ()
Sea Level Pressure  
Sea Level Pressure 30.00 in    
Wind  
Wind Speed 2 mph ()    
Max Wind Speed 6 mph    
Max Gust Speed -    
Visibility 6.7 miles    
Events Rain , Thunderstorm    
T = Trace of Precipitation, MM = Missing Value Source: Averaged Metar Reports

Daily Weather History Graph

Daily Weather History Graph

Search for Another Location

Airport or City:

Trip Planner

Search our weather history database for the weather conditions in past years. The results will help you decide how hot, cold, wet, or windy it might be!

Date:

Astronomy

Aug. 29, 2013 Rise Set
Actual Time 6:49 AM EDT 7:31 PM EDT
Civil Twilight 6:26 AM EDT 7:54 PM EDT
Nautical Twilight 5:58 AM EDT 8:21 PM EDT
Astronomical Twilight 5:31 AM EDT 8:49 PM EDT
Moon 12:57 AM EDT 2:40 PM EDT
Length of Visible Light 13h 28m
Length of Day
12h 41m
Last Quarter, 38% of the Moon is Illuminated
Aug 29
Last Quarter
Sep 5
New
Sep 12
First Quarter
Sep 19
Full
Sep 26
Last Quarter

Hourly Weather History & Observations

Time (EDT) Temp. Heat Index Dew Point Humidity Pressure Visibility Wind Dir Wind Speed Gust Speed Precip Events Conditions
12:00 AM 82.4 °F 90.9 °F 77.0 °F 84% 30.03 in 6.2 mi Variable 1.2 mph - N/A   Scattered Clouds
1:00 AM 80.6 °F 87.1 °F 77.0 °F 89% 30.01 in - Calm Calm - N/A   Scattered Clouds
2:00 AM 81 °F - 78 °F 89% 30.00 in 9 mi Calm Calm - -   Scattered Clouds
2:00 AM 80.6 °F 87.1 °F 77.0 °F 89% 30.00 in 6.2 mi Calm Calm - N/A   Scattered Clouds
3:00 AM 80.6 °F 86.2 °F 75.2 °F 84% - 6.2 mi Calm Calm - N/A   Partly Cloudy
4:00 AM 80.6 °F 86.2 °F 75.2 °F 84% 29.99 in 6.2 mi Calm Calm - N/A Rain Light Rain Showers
5:00 AM 80 °F - 78 °F 91% 30.00 in 8 mi Calm Calm - -  
5:00 AM 80.6 °F 86.2 °F 75.2 °F 84% 30.00 in 6.2 mi Calm Calm - N/A   Scattered Clouds
5:25 AM 80.6 °F 87.1 °F 77.0 °F 89% 29.99 in 6.2 mi Calm Calm - N/A Thunderstorm Light Thunderstorm
6:00 AM 80.6 °F 87.1 °F 77.0 °F 89% 29.99 in - North - - N/A Thunderstorm Light Thunderstorm
7:00 AM 80.6 °F 87.1 °F 77.0 °F 89% 3.00 in 6.2 mi SE 3.5 mph - N/A Thunderstorm Light Thunderstorm
8:00 AM 81 °F - 78 °F 90% 30.02 in 8 mi 1.2 mph - - Thunderstorm Thunderstorm
8:00 AM 80.6 °F 88.1 °F 78.8 °F 94% 30.01 in 6.2 mi Variable 1.2 mph - N/A Thunderstorm Thunderstorm
10:00 AM 82.4 °F 89.5 °F 75.2 °F 79% 30.03 in 6.2 mi East 3.5 mph - N/A   Mostly Cloudy
11:00 AM 86 °F - 78 °F 71% 30.04 in 8 mi 1.2 mph - -  
11:00 AM 86.0 °F 99.3 °F 78.8 °F 79% 30.03 in 6.2 mi Variable 1.2 mph - N/A   Mostly Cloudy
12:00 PM 86.0 °F 96.9 °F 77.0 °F 74% 30.02 in 6.2 mi NNE 5.8 mph - N/A   Mostly Cloudy
1:00 PM 87.8 °F 99.7 °F 77.0 °F 70% 30.02 in 6.2 mi ESE 4.6 mph - N/A   Mostly Cloudy
2:00 PM 87 °F - 78 °F 70% 30.02 in 8 mi East 4.6 mph - -   Partly Cloudy
2:00 PM 87.8 °F 102.5 °F 78.8 °F 75% 30.01 in 6.2 mi East 4.6 mph - N/A   Mostly Cloudy
2:20 PM 86.0 °F 96.9 °F 77.0 °F 74% 30.00 in 6.2 mi East 5.8 mph - N/A Thunderstorm Thunderstorm
3:00 PM 86.0 °F 96.9 °F 77.0 °F 74% 2.99 in 6.2 mi ENE 4.6 mph - N/A   Mostly Cloudy
4:00 PM 84.2 °F 94.1 °F 77.0 °F 79% 29.99 in 6.2 mi SE 5.8 mph - N/A   Mostly Cloudy
5:00 PM 83 °F - 80 °F 88% 29.99 in 7 mi ESE 3.5 mph - - Rain Light Rain
5:00 PM 82.4 °F 94.0 °F 80.6 °F 94% - 6.2 mi ESE 3.5 mph - N/A Rain Light Rain
6:00 PM 82.4 °F 90.9 °F 77.0 °F 84% 29.95 in 6.2 mi SE 3.5 mph - N/A   Mostly Cloudy
8:00 PM 83 °F - 80 °F 86% 29.98 in 9 mi South 3.5 mph - -   Partly Cloudy
8:00 PM 84.2 °F 96.1 °F 78.8 °F 84% 29.98 in 6.2 mi South 3.5 mph - N/A   Mostly Cloudy
9:00 PM 82.4 °F 90.9 °F 77.0 °F 84% 29.99 in 6.2 mi SSW 3.5 mph - N/A   Mostly Cloudy
10:00 PM 80.6 °F 87.1 °F 77.0 °F 89% 30.01 in 6.2 mi Variable 2.3 mph - N/A   Mostly Cloudy
11:00 PM 80 °F - 78 °F 92% 30.01 in 9 mi Calm Calm - -   Partly Cloudy
11:00 PM 80.6 °F 88.1 °F 78.8 °F 94% 30.01 in 6.2 mi Calm Calm - N/A   Mostly Cloudy